Content
SEND FEEDBACK

Daily
Averages
Monthly
Summary
United States of America

ENKA, NORTH CAROLINA


Home > North America > United States > North Carolina
Elevation: 2122 feet     Latitude: 35 33N     Longitude: 082 39W

WEATHER
 
SELECT A DAY
Number of Records: 231,105;   Date Range: 1/1/95 - 12/18/14
 
SHARE

PRINT THIS DATA

[ ← Previous Day ]
WEATHER ALMANAC - JANUARY 28, 2013
[ Next Day → ]
[ °C ]   °F
Weather ElementAverageHighLow
Temperature46.6 °F64 °F (2:54 pm)33.1 °F (7:54 am)
Dewpoint38.6 °F48.2 °F (12:09 pm)28.9 °F (1:54 am)
Humidity75 %93 % (9:54 pm)52 % (2:54 pm)
Barometer30.32 in30.42 in (7:54 am)30.20 in (2:54 pm)
Wind Speed4.4 mph16.1 mph (1:54 pm)
Wind Gust23 mph (2:54 pm)
Weather ElementAverage
Visibility9.9 mi
Wind DirectionESE (108.2 °)

Weather ElementTotal
Precipitation---
Heating Degree Days16.5 (Base 65)
Averaged from 28 records on January 28, 2013
WEATHER CONDITIONS BREAKOUT
WIND DIRECTION BREAKOUT
WEATHER BY HOUR - JANUARY 28, 2013
[ °C ]   °F
Local TimeTemperatureDewpointHumidityBarometerVisibilityWind DirectionWind SpeedGust SpeedPrecipitationEventsConditions
1:31 AM37.4 °F30.2 °F75 %30.38 in10.0 miESE (120°)3.5 mphOvercast
1:54 AM37.0 °F28.9 °F73 %30.40 in10.0 miSSE (150°)4.6 mphScattered Clouds
2:54 AM37.0 °F28.9 °F73 %30.40 in10.0 miSSE (150°)5.8 mphClear
3:54 AM37.0 °F28.9 °F73 %30.39 in10.0 miCalmPartly Cloudy
4:54 AM37.0 °F30.0 °F76 %30.38 in10.0 miSouth (170°)4.6 mphPartly Cloudy
5:54 AM36.0 °F30.0 °F79 %30.40 in10.0 miESE (120°)3.5 mphPartly Cloudy
6:54 AM34.0 °F30.0 °F85 %30.41 in10.0 miEast (90°)3.5 mphMostly Cloudy
7:54 AM33.1 °F28.9 °F85 %30.42 in10.0 miCalmOvercast
8:54 AM36.0 °F30.0 °F79 %30.42 in10.0 miNorth (360°)3.5 mphMostly Cloudy
9:54 AM39.9 °F33.1 °F77 %30.40 in9.0 miCalmClear
10:07 AM41.0 °F33.8 °F76 %30.38 in10.0 miCalmScattered Clouds
10:16 AM42.8 °F35.6 °F76 %30.38 in10.0 miCalmMostly Cloudy
10:54 AM46.0 °F39.0 °F76 %30.39 in10.0 miSSE (150°)3.5 mphOvercast
11:20 AM48.2 °F41.0 °F76 %30.37 in10.0 miVariable3.5 mphMostly Cloudy
11:54 AM53.6 °F44.6 °F72 %30.35 in10.0 miESE (110°)3.5 mphMostly Cloudy
12:09 PM55.4 °F48.2 °F77 %30.34 in10.0 miSW (220°)6.9 mph16.1 mphScattered Clouds
12:54 PM59.0 °F48.0 °F67 %30.29 in10.0 miSSW (200°)10.4 mphScattered Clouds
1:54 PM63.0 °F46.0 °F54 %30.23 in10.0 miSSW (200°)16.1 mph21.9 mphClear
2:54 PM64.0 °F46.0 °F52 %30.20 in10.0 miSSW (210°)13.8 mph23.0 mphClear
3:54 PM64.0 °F46.0 °F52 %30.21 in10.0 miSSW (210°)13.8 mph20.7 mphMostly Cloudy
4:54 PM61.0 °F46.9 °F60 %30.21 in10.0 miSouth (180°)11.5 mph17.3 mphClear
5:54 PM57.0 °F46.9 °F69 %30.23 in10.0 miSSW (200°)8.1 mphClear
6:54 PM53.1 °F46.0 °F77 %30.25 in10.0 miSouth (190°)3.5 mphClear
7:54 PM51.1 °F45.0 °F80 %30.25 in10.0 miCalmMostly Cloudy
8:54 PM48.9 °F44.1 °F83 %30.25 in10.0 miCalmClear
9:54 PM45.0 °F43.0 °F93 %30.25 in10.0 miCalmPartly Cloudy
10:54 PM44.1 °F42.1 °F93 %30.25 in10.0 miCalmMostly Cloudy
11:54 PM43.0 °F41.0 °F93 %30.24 in9.0 miCalmClear
Hourly data recorded from KAVL, located miles away from Enka, North Carolina







STORIES FROM OUR PARTNERS